Regional Weather Roundup
Issued by NWS

Home | Current Version | Previous Version | Text Only | Print | Product List | Glossary On
Versions: 1 2 3 4 5 6 7 8 9 10 11 12 13 14 15 16 17 18 19 20 21 22 23 24 25 26 27 28 29 30 31 32 33 34 35 36 37 38 39 40 41 42 43 44 45 46 47 48 49 50
000
ASUS44 KMEG 221810
RWRTN
TENNESSEE HOURLY STATE WEATHER ROUNDUP
NATIONAL WEATHER SERVICE MEMPHIS TN
1200 PM CST MON DEC 22 2014

TNZ002-004-019-021-049-052-054-088>092-221900-
WEST TENNESSEE

CITY           SKY/WX    TMP DP  RH WIND       PRES   REMARKS
MEMPHIS INTL   CLOUDY    56  51  84 S13       29.73F
NWS MEMPHIS      N/A     55 N/A N/A MISG        N/A
JACKSON        CLOUDY    56  49  77 S9        29.76F
DYERSBURG      CLOUDY    54  39  58 SE6       29.74F
UNION CITY     CLOUDY    52  48  87 S12       29.72F
PARIS          CLOUDY    50  45  81 SE8       29.76F
HUNTINGDON     CLOUDY    52  47  83 S8        29.76F
LEXINGTON      CLOUDY    54  46  76 S9        29.77F
SAVANNAH       CLOUDY    52  50  93 S7        29.80F
$$

TNZ008-025-027-028-033-062-065-066-221900-
NORTH MIDDLE TENNESSEE

CITY           SKY/WX    TMP DP  RH WIND       PRES   REMARKS
NASHVILLE      CLOUDY    54  46  74 SE14      29.83F
CLARKSVILLE    CLOUDY    52  46  80 SE13      29.80F
SMYRNA         CLOUDY    54  46  74 S13       29.84F
COOKEVILLE     MOSUNNY   55  46  71 S12       29.86F
CROSSVILLE     CLOUDY    51  43  74 S10G18    29.89F
$$

TNZ061-075-076-078-094-096-097-221900-
SOUTH MIDDLE TENNESSEE

CITY           SKY/WX    TMP DP  RH WIND       PRES   REMARKS
FAYETTEVILLE   CLOUDY    48  45  87 MISG      29.85F
TULLAHOMA      CLOUDY    52  45  76 S12       29.86F
WINCHESTER     CLOUDY    52  46  82 SE18      29.86F
MCMINNVILLE    PTSUNNY   55  48  76 CALM      29.85F
COLUMBIA       CLOUDY   N/A N/A N/A S9        29.80F
SHELBYVILLE    CLOUDY    54  46  76 S12       29.85F
$$

TNZ017-018-042-046-047-221900-
NORTHEAST TENNESSEE

CITY           SKY/WX    TMP DP  RH WIND       PRES   REMARKS
TRI CITIES     MOSUNNY   57  42  57 NE6       29.94F
ELIZABETHTON   CLEAR     55  41  58 E9        29.94F
$$

TNZ012-013-036-069-073-074-221900-
CENTRAL EAST TENNESSEE

CITY           SKY/WX    TMP DP  RH WIND       PRES   REMARKS
KNOXVILLE      PTSUNNY   55  41  59 CALM      29.90F
OAK RIDGE      CLOUDY    53  39  59 N3        29.93F
GATLINBURG     CLOUDY    54  39  58 E3        29.90F
MORRISTOWN     PTCLDY    55  43  62 E8        29.91F
$$

TNZ083-085-099-221900-
SOUTHEAST TENNESSEE

CITY           SKY/WX    TMP DP  RH WIND       PRES   REMARKS
CHATTANOOGA    CLOUDY    50  44  80 SW6       29.93F
$$

SKY/WX REPORTED AS FAIR MEANS FEW OR NO CLOUDS BELOW
12 THOUSAND FEET.



USA.gov is the U.S. government's official web portal to all federal, state and local government web resources and services.